Regional Weather Roundup
Issued by NWS

Home | Current Version | Previous Version | Text Only | Print | Product List | Glossary On
Versions: 1 2 3 4 5 6 7 8 9 10 11 12 13 14 15 16 17 18 19 20 21 22 23 24 25 26 27 28 29 30 31 32 33 34 35 36 37 38 39 40 41 42 43 44 45 46 47 48 49 50
737
ASUS44 KFWD 271001
RWRTX
NORTH TEXAS HOURLY WEATHER ROUNDUP
NATIONAL WEATHER SERVICE FORT WORTH TX
500 AM CDT MON MAR 27 2017

NOTE: "FAIR" INDICATES FEW OR NO CLOUDS BELOW 12,000 FEET WITH NO
SIGNIFICANT WEATHER AND/OR OBSTRUCTIONS TO VISIBILITY.

TXZ118-119-271100-
DALLAS/FORT WORTH METROPLEX

CITY           SKY/WX    TMP DP  RH WIND       PRES   REMARKS
DFW AIRPORT    CLOUDY    70  64  81 SW12      29.79R
DALLAS LOVE    CLOUDY    70  64  81 SW6       29.80S
FTW MEACHAM    CLOUDY    68  60  75 W7        29.80S
DAL-EXECUTIVE  CLOUDY    68  64  87 SW8       29.80R
FTW-ALLIANCE   CLOUDY    63  50  62 NW9       29.81R
FTW-NAS-JRB    CLOUDY    68  61  78 NW6       29.81S
FTW-SPINKS     CLOUDY    66  62  85 CALM      29.83S
ARLINGTON      CLOUDY    68  62  81 SW10      29.81R
GRAND PRAIRIE  CLOUDY    68  61  78 SW8       29.82S
ADDISON        CLOUDY    69  64  84 SW8       29.82S
MESQUITE       MOCLDY    67  64  91 SW7       29.81R
LANCASTER      CLEAR     67  63  87 W6        29.82R
$$

TXZ091>094-102>105-117-120-121-131>134-271100-
NORTH CENTRAL TEXAS

CITY           SKY/WX    TMP DP  RH WIND       PRES   REMARKS
SHRMAN/DENISON PTCLDY    62  58  86 W12       29.80R
GAINESVILLE    CLEAR     54  49  84 NW8       29.84R
BOWIE          PTCLDY    53  50  89 W9        29.83R
BRIDGEPORT     CLEAR     56  47  73 NW6       29.85S
DECATUR        CLEAR     55  48  79 W7        29.83R
DENTON         CLOUDY    60  52  74 W7        29.81R
MCKINNEY       CLOUDY    69  66  90 SW13      29.80R
BONHAM         CLOUDY    66  64  94 SW12      29.78R
ROCKWALL       CLOUDY    68  65  91 SW10G16   29.80R
TERRELL        CLEAR     66  63  90 SW6       29.80R
WAXAHACHIE     CLEAR     66  65  96 SW5       29.81R
CLEBURNE       CLOUDY    64  64 100 CALM      29.83S
GRANBURY       CLOUDY    67  61  82 CALM      29.82F
$$

TXZ083>090-098>101-113>116-127>130-139>142-154-155-271100-
WESTERN NORTH TEXAS

CITY           SKY/WX    TMP DP  RH WIND       PRES   REMARKS
WICHITA FALLS  PTCLDY    50  45  83 NW9       29.84R
WF-KICKAPOO    PTCLDY    52  46  81 NW8G17    29.86R
VERNON         CLEAR     49  40  72 NW9       29.89S
ABILENE        CLEAR     51  44  77 N12       29.90R
ABILENE-DYESS  CLEAR     47  41  78 N8        29.90R
GRAHAM         CLEAR     51  46  83 CALM      29.85R
CISCO          CLEAR     52  45  76 NW13      29.87S
MINERAL WELLS  CLEAR     53  47  79 NW7       29.82R
STEPHENVILLE   PTCLDY    59  50  71 NW9       29.86R
COMANCHE       CLOUDY    60  48  64 NW10      29.85R
COLEMAN        PTCLDY    55  42  62 N12       29.87R
$$

TXZ143>147-156>162-174-175-271100-
CENTRAL TEXAS

CITY           SKY/WX    TMP DP  RH WIND       PRES   REMARKS
WACO           PTCLDY    67  65  93 S14       29.80F
WACO-MCGREGOR  PTCLDY    66  65  96 S13       29.80F
HILLSBORO      CLEAR     65  63  93 S7        29.81R
CORSICANA      CLEAR     67  63  87 S10       29.81R
MEXIA          CLEAR     62  58  87 S14       29.81S
HEARNE         CLEAR     65  65 100 SE7       29.84S
CAMERON        CLEAR     67  65  90 S8        29.82S
TEMPLE         CLOUDY    66  66 100 S14       29.82F
KILLEEN        CLOUDY    67  66  97 S12       29.80F
KILLEEN-SKYLRK CLOUDY    68  67  96 S8        29.82S
FORT HOOD      CLOUDY    66  66 100 S8        29.79S
GATESVILLE     CLOUDY    66  66 100 S7        29.83S FOG
HAMILTON       MOCLDY    66  66 100 NW3       29.83R FOG
LAMPASAS       PTCLDY    65  65  97 CALM      29.81S FOG
$$

TXZ095>097-106>112-122>126-135>138-148>153-164>167-271100-
EAST TEXAS

CITY           SKY/WX    TMP DP  RH WIND       PRES   REMARKS
PARIS          MOCLDY    63  59  88 SW5       29.79R
SULPHUR SPRNGS CLEAR     67  64  89 SW8       29.81R
GILMER         MOCLDY    66  63  88 S10G16    29.80S
MINEOLA        MOCLDY    68  63  83 S9        29.80R
TYLER          CLOUDY    69  64  84 S14       29.81R
LONGVIEW       CLEAR     68  64  87 S13       29.81F
MARSHALL       MOCLDY    66  62  86 MISG      29.85S
ATHENS         PTCLDY    66  63  88 S8        29.80S
PALESTINE      PTCLDY    68  65  91 S8        29.83S
JACKSONVILLE   MOCLDY    68  65  89 S10       29.85S
HENDERSON      MOCLDY    67  64  88 S7        29.84S
CENTER         CLOUDY    73  69  89 S8        29.87R
NACOGDOCHES    CLOUDY    70  64  83 S12       29.84S
LUFKIN         CLOUDY    68  66  93 S8        29.85S
$$

SUPPLEMENTAL OBSERVATIONS (CENTRAL)

CITY           SKY/WX    TMP DP  RH WIND       PRES   REMARKS
$$

SUPPLEMENTAL OBSERVATIONS (WEST)

CITY           SKY/WX    TMP DP  RH WIND       PRES   REMARKS
$$

SUPPLEMENTAL OBSERVATIONS (EAST)

CITY           SKY/WX    TMP DP  RH WIND       PRES   REMARKS
$$

SUPPLEMENTAL OBSERVATIONS ARE A COLLECTION OF AUTOMATED INSTRUMENTS
THAT ARE MAINTAINED BY A VARIETY OF FEDERAL AND STATE AGENCIES.
CERTAIN ELEMENTS...SUCH AS HUMIDITY VALUES AND SUSTAINED WIND
SPEEDS...MAY BE APPROXIMATED.





USA.gov is the U.S. government's official web portal to all federal, state and local government web resources and services.